Location: Newark
(42.7133°N, 87.7910°W)
Time: 12:28:19
(UTC+00:00)

Tiros 1 - Pass Details

Date: 29 September 2019
Orbit: 630 x 664 km, 48.4° (Epoch: 20 October)

Event Time Altitude Azimuth Distance (km) Brightness Sun altitude
Rises 16:04:15 0° 248° (WSW) 2,984 10.5 39.8°
Reaches altitude 10° 16:06:36 10° 250° (WSW) 2,071 9.8 40.0°
Maximum altitude 16:11:23 76° 336° (NNW) 679 7.7 40.4°
Drops below altitude 10° 16:16:09 10° 63° (ENE) 2,058 9.9 40.9°
Sets 16:18:29 0° 65° (ENE) 2,965 10.6 41.1°
